Date String (YYYY-MM-DD hh:mm:ss) UTC,Instrument flags,absolute air pressure of the measurement (hPa),sample flow rate (lpm),inlet stack bypass flow (lpm),air temperature of the measurement (°C),ambient temperature measured by the external sensor (°C),aerosol sample conditioner tube jacket temperature (°C),OPC LED temperature (°C),internal box temperature (°C),relative humidity of the measurement (%),span deviation,mass concentration of particles derived from Lorenz-Mie calculation of OPC scattering (μg/m³),mass concentration of particles derived from Lorenz-Mie calculation of OPC scattering (μg/m³),mass concentration of particles derived from Lorenz-Mie calculation of OPC scattering (μg/m³)
DateTimeUTC,F1_M11,P_M11,Q1_M11,Q2_M11,T1_M11,T2_M11,T3_M11,T4_M11,T5_M11,U1_M11,ZSPAN_M11,X2_M11,X0_M11,X1_M11
2023-09-11 01:00:00,SystemResetWarning,0837.7,5.01,000.00,029.3,026.6,000.0,037.3,030.2,34.3,-000.3,0007.65,0011.72,0007.15
2023-09-11 01:01:00,SystemResetWarning,0837.7,5.00,000.00,029.3,026.8,000.0,037.3,030.2,34.2,-000.4,0007.67,0011.81,0007.16
2023-09-11 01:02:00,SystemResetWarning,0837.7,5.00,000.00,029.3,026.9,000.0,037.4,030.3,34.4,-000.3,0007.68,0011.85,0007.17
2023-09-11 01:03:00,SystemResetWarning,0837.7,5.00,000.00,029.3,027.0,000.0,037.4,030.3,34.5,-000.0,0007.71,0011.89,0007.19
2023-09-11 01:04:00,SystemResetWarning,0837.7,5.00,000.00,029.3,027.1,000.0,037.4,030.3,34.3,-000.0,0007.64,0011.77,0007.13
2023-09-11 01:05:00,SystemResetWarning,0837.7,5.00,000.00,029.3,027.2,000.0,037.4,030.4,34.2,0000.1,0007.59,0011.95,0007.09
2023-09-11 01:06:00,SystemResetWarning,0837.7,5.00,000.00,029.3,027.3,000.0,037.4,030.4,34.2,-000.0,0007.56,0011.93,0007.07
2023-09-11 01:07:00,SystemResetWarning,0837.7,4.99,000.00,029.3,027.3,000.0,037.5,030.5,34.0,0000.1,0007.51,0011.87,0007.04
2023-09-11 01:08:00,SystemResetWarning,0837.6,5.00,000.00,029.4,027.4,000.0,037.5,030.5,33.9,-000.1,0007.52,0011.90,0007.03
2023-09-11 01:09:00,SystemResetWarning,0837.7,5.00,000.00,029.4,027.4,000.0,037.5,030.6,34.0,-000.1,0007.49,0011.88,0007.01
2023-09-11 01:10:00,SystemResetWarning,0837.6,4.99,000.00,029.4,027.4,000.0,037.5,030.6,34.0,0000.0,0007.42,0011.79,0006.95
2023-09-11 01:11:00,SystemResetWarning,0837.6,5.00,000.00,029.4,027.5,000.0,037.5,030.6,34.0,0000.1,0007.30,0011.65,0006.86
2023-09-11 01:12:00,SystemResetWarning,0837.7,5.00,000.00,029.4,027.5,000.0,037.5,030.6,34.0,0000.1,0007.20,0011.49,0006.74
2023-09-11 01:13:00,SystemResetWarning,0837.6,5.00,000.00,029.4,027.5,000.0,037.5,030.6,34.0,-000.1,0007.06,0011.35,0006.61
2023-09-11 01:14:00,SystemResetWarning,0837.6,5.00,000.00,029.4,027.5,000.0,037.5,030.6,33.9,-000.3,0006.90,0011.12,0006.48
2023-09-11 01:15:00,SystemResetWarning,0837.6,4.99,000.00,029.4,027.6,000.0,037.5,030.6,33.8,-000.4,0006.83,0011.08,0006.41
2023-09-11 01:16:00,SystemResetWarning,0837.7,4.99,000.00,029.4,027.6,000.0,037.5,030.7,33.7,-000.4,0006.81,0010.91,0006.35
2023-09-11 01:17:00,SystemResetWarning,0837.6,4.99,000.00,029.4,027.6,000.0,037.6,030.7,33.8,-000.4,0006.76,0010.97,0006.30
2023-09-11 01:18:00,SystemResetWarning,0837.7,5.00,000.00,029.4,027.6,000.0,037.6,030.7,34.0,-000.5,0006.70,0010.91,0006.22
2023-09-11 01:19:00,SystemResetWarning,0837.6,4.99,000.00,029.4,027.6,000.0,037.6,030.7,33.8,-000.7,0006.56,0010.76,0006.09
2023-09-11 01:20:00,SystemResetWarning,0837.6,5.00,000.00,029.4,027.6,000.0,037.6,030.7,33.8,-000.6,0006.42,0010.84,0005.97
2023-09-11 01:21:00,SystemResetWarning,0837.6,5.00,000.00,029.4,027.4,000.0,037.6,030.7,33.7,-000.8,0006.30,0010.82,0005.88
2023-09-11 01:22:00,SystemResetWarning,0837.6,4.99,000.00,029.4,025.8,000.0,037.5,030.3,33.8,-000.8,0006.27,0010.83,0005.83
2023-09-11 01:23:00,SystemResetWarning,0837.5,5.00,000.00,029.3,024.7,000.0,037.4,030.1,33.7,-000.7,0006.20,0010.79,0005.78
2023-09-11 01:24:00,SystemResetWarning,0837.5,5.01,000.00,029.2,024.5,000.0,037.4,029.9,33.9,-000.6,0006.13,0010.62,0005.71
2023-09-11 01:25:00,SystemResetWarning,0837.5,5.01,000.00,029.0,024.8,000.0,037.4,029.8,34.1,-000.7,0006.09,0010.56,0005.67
2023-09-11 01:26:00,SystemResetWarning,0837.4,4.99,000.00,028.9,025.2,000.0,037.3,029.8,34.3,-000.4,0006.01,0010.43,0005.61
2023-09-11 01:27:00,SystemResetWarning,0837.4,5.00,000.00,028.8,025.5,000.0,037.3,029.9,34.4,-000.4,0005.90,0010.21,0005.54
2023-09-11 01:28:00,SystemResetWarning,0837.4,5.00,000.00,028.8,025.8,000.0,037.3,030.0,34.5,-000.3,0005.84,0009.94,0005.49
2023-09-11 01:29:00,SystemResetWarning,0837.4,5.01,000.00,028.8,026.1,000.0,037.2,030.0,34.5,-000.1,0005.75,0009.75,0005.42
2023-09-11 01:30:00,SystemResetWarning,0837.4,4.99,000.00,028.8,026.3,000.0,037.2,030.1,34.5,0000.2,0005.71,0009.66,0005.39
2023-09-11 01:31:00,SystemResetWarning,0837.5,4.99,000.00,028.8,026.5,000.0,037.2,030.1,34.5,0000.6,0005.66,0009.36,0005.33
2023-09-11 01:32:00,SystemResetWarning,0837.5,5.00,000.00,028.8,026.6,000.0,037.2,030.2,34.5,0000.7,0005.61,0009.03,0005.28
2023-09-11 01:33:00,SystemResetWarning,0837.5,5.00,000.00,028.8,026.7,000.0,037.1,030.2,34.6,0000.8,0005.53,0008.86,0005.23
2023-09-11 01:34:00,SystemResetWarning,0837.5,5.00,000.00,028.8,026.8,000.0,037.1,030.2,34.5,0000.7,0005.48,0008.69,0005.20
2023-09-11 01:35:00,SystemResetWarning,0837.5,4.99,000.00,028.8,026.9,000.0,037.1,030.2,34.5,0000.8,0005.46,0008.73,0005.18
2023-09-11 01:36:00,SystemResetWarning,0837.5,5.01,000.00,028.8,027.0,000.0,037.1,030.2,34.4,0000.8,0005.47,0008.80,0005.14
2023-09-11 01:37:00,SystemResetWarning,0837.4,5.01,000.00,028.8,027.0,000.0,037.1,030.2,34.3,0000.8,0005.47,0008.82,0005.12
2023-09-11 01:38:00,SystemResetWarning,0837.4,5.00,000.00,028.8,027.1,000.0,037.1,030.2,34.3,0000.9,0005.47,0008.86,0005.10
2023-09-11 01:39:00,SystemResetWarning,0837.4,5.00,000.00,028.8,027.1,000.0,037.1,030.2,34.1,0000.8,0005.46,0008.85,0005.08
2023-09-11 01:40:00,SystemResetWarning,0837.4,5.00,000.00,028.8,027.1,000.0,037.1,030.2,33.9,0000.8,0005.43,0008.82,0005.06
2023-09-11 01:41:00,SystemResetWarning,0837.3,5.00,000.00,028.8,027.2,000.0,037.1,030.3,33.6,0000.7,0005.38,0008.70,0005.03
2023-09-11 01:42:00,SystemResetWarning,0837.3,5.00,000.00,028.8,027.2,000.0,037.1,030.3,33.5,0000.7,0005.38,0008.70,0005.03
2023-09-11 01:43:00,SystemResetWarning,0837.2,5.00,000.00,028.8,027.2,000.0,037.1,030.3,33.3,0000.6,0005.42,0008.76,0005.06
2023-09-11 01:44:00,SystemResetWarning,0837.4,5.00,000.00,028.8,027.2,000.0,037.1,030.3,33.4,0000.3,0005.45,0008.81,0005.08
2023-09-11 01:45:00,SystemResetWarning,0837.3,5.00,000.00,028.8,027.3,000.0,037.1,030.3,33.6,0000.3,0005.45,0008.84,0005.07
2023-09-11 01:46:00,SystemResetWarning,0837.3,5.00,000.00,028.8,027.3,000.0,037.1,030.4,33.6,0000.4,0005.41,0008.70,0005.05
2023-09-11 01:47:00,SystemResetWarning,0837.4,5.00,000.00,028.9,027.3,000.0,037.1,030.4,33.6,0000.8,0005.34,0008.52,0005.03
2023-09-11 01:48:00,SystemResetWarning,0837.4,5.00,000.00,028.9,027.3,000.0,037.1,030.4,33.4,0000.7,0005.32,0008.53,0005.01
2023-09-11 01:49:00,SystemResetWarning,0837.4,5.00,000.00,028.9,027.3,000.0,037.1,030.4,33.4,0000.5,0005.26,0008.41,0004.98
2023-09-11 01:50:00,SystemResetWarning,0837.4,5.00,000.00,028.9,027.3,000.0,037.1,030.4,33.0,0000.4,0005.19,0008.31,0004.92
2023-09-11 01:51:00,SystemResetWarning,0837.5,5.00,000.00,028.9,027.4,000.0,037.2,030.4,32.6,0000.4,0005.15,0008.26,0004.86
2023-09-11 01:52:00,SystemResetWarning,0837.5,5.00,000.00,028.9,027.4,000.0,037.2,030.4,32.5,0000.4,0005.13,0008.25,0004.82
2023-09-11 01:53:00,SystemResetWarning,0837.5,5.00,000.00,028.9,027.4,000.0,037.2,030.4,32.2,-000.1,0005.07,0008.18,0004.76
2023-09-11 01:54:00,SystemResetWarning,0837.5,5.00,000.00,028.9,027.4,000.0,037.2,030.4,31.8,-000.2,0004.96,0008.05,0004.66
2023-09-11 01:55:00,SystemResetWarning,0837.5,4.99,000.00,028.9,027.5,000.0,037.2,030.5,31.5,0000.2,0004.88,0007.94,0004.57
2023-09-11 01:56:00,SystemResetWarning,0837.5,5.00,000.00,028.9,027.5,000.0,037.2,030.5,31.3,0000.3,0004.84,0008.05,0004.51
2023-09-11 01:57:00,SystemResetWarning,0837.5,5.00,000.00,029.0,027.5,000.0,037.2,030.5,31.4,-000.1,0004.81,0008.12,0004.45
2023-09-11 01:58:00,SystemResetWarning,0837.5,5.01,000.00,029.0,027.5,000.0,037.2,030.5,31.8,-000.6,0004.77,0008.07,0004.42
2023-09-11 01:59:00,SystemResetWarning,0837.5,5.01,000.00,029.0,027.6,000.0,037.2,030.5,32.2,-000.8,0004.72,0007.97,0004.38
